George, South Africa

10:00 AM SAST on June 29, 2017 (GMT +0200)
George

Weather History for FAGG - February, 2013

Change the Weather History Date:

Sunday, February 24, 2013

  Actual Average Record
Temperature  
Mean Temperature 68 °F -  
Max Temperature 80 °F 73 °F 92 °F (2017)
Min Temperature 56 °F 57 °F 51 °F (1997)
Cooling Degree Days 3    
Growing Degree Days 18 (Base 50)    
Moisture  
Dew Point 59 °F    
Average Humidity 72    
Maximum Humidity 94    
Minimum Humidity 47    
Precipitation  
Precipitation 0.00 in - - ()
Sea Level Pressure  
Sea Level Pressure 30.03 in    
Wind  
Wind Speed 4 mph ()    
Max Wind Speed 12 mph    
Max Gust Speed -    
Visibility 12.3 miles    
Events      
Averages and records for this station are not official NWS values.
T = Trace of Precipitation, MM = Missing Value Source: Averaged Metar Reports

Daily Weather History Graph

Daily Weather History Graph

Search for Another Location

Airport or City:

Trip Planner

Search our weather history database for the weather conditions in past years. The results will help you decide how hot, cold, wet, or windy it might be!

Date:

Astronomy

Feb. 24, 2013 Rise Set
Actual Time 6:13 AM SAST 7:12 PM SAST
Civil Twilight 5:48 AM SAST 7:38 PM SAST
Nautical Twilight 5:17 AM SAST 8:08 PM SAST
Astronomical Twilight 4:46 AM SAST 8:40 PM SAST
Moon 6:08 PM SAST (2/24) 4:44 AM SAST (2/24)
Length of Visible Light 13h 50m
Length of Day
12h 58m
Waxing Gibbous, 98% of the Moon is Illuminated
Feb 24
Waxing Gibbous
Feb 25
Full
Mar 4
Last Quarter
Mar 11
New
Mar 19
First Quarter

Hourly Weather History & Observations

Time (SAST) Temp. Dew Point Humidity Pressure Visibility Wind Dir Wind Speed Gust Speed Precip Events Conditions
12:00 AM 64.4 °F 59.0 °F 83% 30.06 in 6.2 mi North 2.3 mph - N/A   Partly Cloudy
1:00 AM 62.6 °F 57.2 °F 82% 30.06 in - NW 4.6 mph - N/A   Clear
2:00 AM 61 °F 56 °F 80% 30.06 in 12 mi NW 4.6 mph - -  
2:00 AM 60.8 °F 57.2 °F 88% 30.06 in - NW 4.6 mph - N/A   Clear
3:00 AM 60.8 °F 57.2 °F 88% 30.04 in - NNW 4.6 mph - N/A   Clear
4:00 AM 60.8 °F 57.2 °F 88% 30.04 in - WNW 3.5 mph - N/A   Clear
5:00 AM 58 °F 55 °F 86% 30.04 in 12 mi NNW 2.3 mph - -  
5:00 AM 59.0 °F 55.4 °F 88% 30.04 in - NNW 2.3 mph - N/A   Clear
6:00 AM 57.2 °F 55.4 °F 94% 30.04 in - NNW 3.5 mph - N/A   Clear
7:00 AM 59.0 °F 55.4 °F 88% 30.06 in - NNW 2.3 mph - N/A   Clear
8:00 AM 65 °F 59 °F 75% 30.07 in 12 mi NW 2.3 mph - -  
8:00 AM 66.2 °F 59.0 °F 78% 30.06 in - Variable 2.3 mph - N/A   Clear
9:00 AM 69.8 °F 57.2 °F 64% 30.06 in - South 5.8 mph - N/A   Clear
10:00 AM 73.4 °F 59.0 °F 61% 30.06 in 6.2 mi Variable 3.5 mph - N/A   Partly Cloudy
11:00 AM 74 °F 59 °F 51% 30.07 in 12 mi ESE 5.8 mph - -  
11:00 AM 75.2 °F 59.0 °F 57% 30.06 in - Variable 5.8 mph - N/A   Clear
12:00 PM 75.2 °F 59.0 °F 57% 30.06 in - South 8.1 mph - N/A   Clear
1:00 PM 75.2 °F 59.0 °F 57% 30.04 in - SE 6.9 mph - N/A   Clear
2:00 PM 78 °F 62 °F 48% 29.99 in 19 mi SE 11.5 mph - -  
2:00 PM 77.0 °F 60.8 °F 57% 30.01 in - SE 9.2 mph - N/A   Clear
3:00 PM 77.0 °F 60.8 °F 57% 30.01 in - SSE 10.4 mph - N/A   Clear
4:00 PM 77.0 °F 60.8 °F 57% 29.98 in - SE 9.2 mph - N/A   Clear
5:00 PM 77 °F 60 °F 47% 29.97 in 19 mi SE 8.1 mph - -  
5:00 PM 77.0 °F 60.8 °F 57% 29.98 in - SE 8.1 mph - N/A   Clear
6:00 PM 75.2 °F 60.8 °F 61% 29.98 in - SSE 10.4 mph - N/A   Clear
7:00 PM 68.0 °F 59.0 °F 73% 30.01 in - ESE 5.8 mph - N/A   Clear
8:00 PM 64 °F 59 °F 80% 30.01 in 12 mi East 5.8 mph - -  
8:00 PM 64.4 °F 59.0 °F 83% 30.01 in - East 4.6 mph - N/A   Clear
9:00 PM 64.4 °F 59.0 °F 83% 30.04 in - ENE 4.6 mph - N/A   Clear
10:00 PM 62.6 °F 59.0 °F 88% 30.01 in - ENE 4.6 mph - N/A   Clear
11:00 PM 62.6 °F 59.0 °F 88% 30.01 in - North 2.3 mph - N/A   Clear